Regional Weather Roundup
Issued by NWS Grand Forks, ND

Home | Current Version | Previous Version | Graphics & Text | Print | Product List | Glossary On
Versions: 1 2 3 4 5 6 7 8 9 10 11 12 13 14 15 16 17 18 19 20 21 22 23 24 25 26 27 28 29 30 31 32 33 34 35 36 37 38 39 40 41 42 43 44 45 46 47 48 49 50
976
ASUS43 KFGF 171410
RWRFGF
PRAIRIE TO PINES  WEATHER ROUNDUP
NATIONAL WEATHER SERVICE EASTERN NORTH DAKOTA/GRAND FORKS ND
800 AM CST SAT FEB 17 2018

 **SATELLITE DATA USED TO AUGMENT SKY COVER AT AUTOMATED STATIONS**
 *****  WEATHER ACROSS EASTERN NORTH DAKOTA  *****

CITY           SKY/WX    TMP DP  RH WIND       PRES   REMARKS
GRAND FORKS    FAIR      12   7  80 W12       29.83R WCI  -2
GRAND FRKS AFB CLEAR     12   6  78 NW8       29.83R WCI   0
GRAND FRKS NWS   N/A     12   9  87 NW12      29.81R WCI  -2
DEVILS LAKE    FAIR       9   5  84 W12       29.85R WCI  -6
FARGO          FAIR      14  10  84 W8        29.85R WCI   3
WAHPETON ARPT  FAIR      14  10  85 W6        29.88R WCI   5
$$

 ***** WEATHER ACROSS CENTRAL AND WESTERN NORTH DAKOTA  *****

CITY           SKY/WX    TMP DP  RH WIND       PRES   REMARKS
BISMARCK       MOCLDY    17  12  80 NW6       29.92R WCI   9
MINOT          CLOUDY    12   6  77 W12       29.89R WCI  -2
JAMESTOWN      FAIR      14  10  84 W10       29.85R WCI   1
MINOT AFB      MOCLDY     8   3  81 W9        30.01  WCI  -6
GARRISON         N/A      9   6  88 NW10      29.90R WCI  -5
WILLISTON      FAIR       8   4  83 W9        29.95S WCI  -5
DICKINSON      MOCLDY    13  10  88 W14       29.91R WCI  -2
HETTINGER      FAIR      13   9  84 NW14      29.92R WCI  -2
$$

 *****  OTHER AIRPORT OBSERVATIONS IN OUR AREA  *****

CITY           SKY/WX    TMP DP  RH WIND       PRES   REMARKS
WALHALLA       FAIR      10  10 100 NW13      29.81R WCI  -5
GRAFTON AIRPOR FAIR      10   7  85 W12       29.84R WCI  -4
VALLEY CITY AR FAIR      12  12 100 W14       29.86S WCI  -3
CANDO          FAIR       3   1  92 W10       29.86R WCI -12
CAVALIER APRT    N/A      9   5  85 W7        29.81R WCI  -3
GWINNER          N/A     18  12  79 NW12      29.88R WCI   5
SHEYENNE NWR     N/A     12  10  90 W6        29.95S WCI   3
ROLLA          FAIR       7   0  72 NW14      29.81R WCI -10
 ***** THE ABOVE OBSERVATIONS ARE NON NWS ARE NOT QUALITY
       CONTROLLED AND MAY MIS-REPORT RAIN FOR SNOW...
$$

  *****  WEATHER ACROSS NORTHERN MINNESOTA  *****

CITY           SKY/WX    TMP DP  RH WIND       PRES   REMARKS
FLAG ISLAND    FAIR       5   1  85 W9        29.72R WCI  -9
WARROAD        FAIR       9   3  78 W7        29.76R WCI  -3
ROSEAU         NOT AVBL
HALLOCK        FAIR       3   0  85 W6        29.80R WCI  -8
THF RVR FALLS  MOCLDY    12   8  84 W10       29.80R WCI  -1
BAUDETTE       MOCLDY    12   6  77 W9        29.72R WCI   0
WASKISH        CLOUDY    10   7  85 SW9       29.75R WCI  -2
CROOKSTON      FAIR      10   7  85 W7        29.84R WCI   0
STEPHEN NDAWN    N/A      9   5  85 W8          N/A  WCI  -4
GREENBUSH NDAW   N/A      7   3  85 W6          N/A  WCI  -3
$$
  *****  WEATHER ACROSS CENTRAL AND WEST MINNESOTA  *****

CITY           SKY/WX    TMP DP  RH WIND       PRES   REMARKS
FOSSTON        FAIR       9   7  92 W3        29.80R
BEMIDJI        FAIR      13   9  83 W8        29.76R WCI   1
PARK RAPIDS    FAIR       9   5  84 NW8       29.77R WCI  -3
ELBOW LAKE     FAIR      14  11  89 NW6       29.85R WCI   5
WADENA         FAIR      16  12  86 W7        29.80R WCI   6
DETROIT LAKES  FAIR      18  14  86 W8        29.81R WCI   7
MOORHEAD       FAIR      16  10  79 W7        29.86R WCI   6
FERGUS FALLS   FAIR      12  10  92 NW7       29.85R WCI   2
MORRIS MN      FAIR      16  12  86 W5        29.86R WCI   9
STAPLES        FAIR      12  10  92 W6        29.81R WCI   3
$$
  *****  WEATHER ELSEWHERE ACROSS MINNESOTA  *****

CITY           SKY/WX    TMP DP  RH WIND       PRES   REMARKS
DULUTH         FAIR      14  10  84 SW13      29.75R WCI   0
INTRNTL FALLS  FAIR      16  10  77 W8        29.70R WCI   5
ELY            CLOUDY    16  10  79 SW8       29.69S WCI   5
CLOQUET        FAIR      12   9  85 SW8       29.78R WCI   1
WHEATON        FAIR      16  10  79 SW5       29.89R WCI   9
BRAINERD       FAIR      14  10  84 SW5       29.80R WCI   6
HIBBING        MOCLDY     4   3  96 CALM      29.73R
ALEXANDRIA     FAIR      18  14  84 W7        29.83R WCI   9
SAINT CLOUD    CLOUDY    19  15  84 CALM      29.85R
MINNEAPOLIS    LGT SNOW  24  22  91 SW8       29.89R FOG     WCI  15
$$

  *****  WEATHER ACROSS SOUTH DAKOTA  *****

CITY           SKY/WX    TMP DP  RH WIND       PRES   REMARKS
SIOUX FALLS    CLOUDY    25  24  96 SW3       29.88R
BROOKINGS      FOG       24  23  96 W9        29.87R VSB 1   WCI  14
WATERTOWN      MOCLDY    14  14 100 SW6       29.84R WCI   5
HURON          CLOUDY    19  15  84 NW7       29.90R WCI  10
SISSETON         N/A     19  15  84 NW8       29.86R WCI   9
ABERDEEN       CLOUDY    19  16  88 NW7       29.90R WCI  10
MITCHELL       FAIR      21  20  96 W7        29.91R WCI  12
PIERRE         SNOW      25  23  92 NW16      29.93R VSB 1/2 WCI  12
MOBRIDGE       MOCLDY    22  17  81 NW9       29.89R WCI  12
RAPID CITY     FAIR      27  21  78 N22       29.94R WCI  13
$$

  *****  SOME WEATHER IN NEARBY STATES *****

CITY           SKY/WX    TMP DP  RH WIND       PRES   REMARKS
GLASGOW MT     FAIR       3   0  87 NW7       29.99F WCI  -9
GREAT FALLS MT FAIR      13  10  88 SE8       29.92F WCI   2
CHEYENNE WY    FAIR      29   9  43 NW23G33   29.97R WCI  15
SCOTTSBLUFF NE FAIR      27  16  63 W6        29.99R WCI  20
OMAHA NE       CLOUDY    30  17  58 S7        29.92R WCI  23
DES MOINES IA  CLOUDY    27  13  55 SE6       29.95R WCI  20
DAVENPORT IA   PTSUNNY   24  14  65 SE7       30.05F WCI  16
CHICAGO IL     CLOUDY    21   9  59 S9        30.09F WCI  11
EAU CLAIRE WI  LGT SNOW  22  12  65 SW6       29.90R WCI  14
LA CROSSE WI   CLOUDY    23  10  57 SE8       29.98R WCI  14
$$

  *****  SOME NATIONAL WEATHER *****

CITY           SKY/WX    TMP DP  RH WIND       PRES   REMARKS
LA GUARDIA NY  PTSUNNY   33  17  51 N6        30.42S
RALEIGH NC     CLOUDY    44  33  65 E10       30.31R
ATLANTA GA     CLOUDY    53  49  86 E6        30.14S
NEW ORLEANS LA CLOUDY    69  69 100 S7        30.11S
OKLAHOMA CITY  MOCLDY    36  34  92 S9        30.03R
ALBUQUERQUE NM FOG       31  31 100 SE5       30.21R VSB 1/4
SALT LAKE CITY FAIR      32  18  56 SE10      30.19F WCI  24
LOS ANGELES CA FAIR      53  27  36 CALM      30.09S
BOISE ID       CLOUDY    34  27  75 SE9       30.12F
SEATTLE WA     LGT RAIN  44  41  89 SW16G25   29.87F
$$

*** WEATHER ACROSS MANITOBA...SASKATCHEWAN AND ONTARIO ***
                ***ONTARIO***

CITY           SKY/WX    TMP DP  RH WIND       PRES   REMARKS
GERALDTON      LGT SNOW  16  14  93 SW10      29.55F VSB 1   WCI   3
THUNDER BAY    MOCLDY    21  12  68 SW12      29.67F WCI   9
SIOUX LOOKOUT  FLURRIES  12   7  79 NW12G17   29.59R WCI  -2
TORONTO        PTSUNNY   27  19  74 S8        30.23F WCI  18
BIG TROUT LK   FLURRIES  -4  -9  77 NW12      29.47R WCI -22
PICKLE LAKE    FLURRIES   7   3  85 W10       29.49R WCI  -8
DRYDEN         FLURRIES   7   5  92 W15       29.62R WCI -11
KENORA         PTCLDY     3   0  85 W8        29.68R WCI -10
$$
                *** MANITOBA***

CITY           SKY/WX    TMP DP  RH WIND       PRES   REMARKS
BRANDON        PTCLDY    -2  -8  78 W12       29.83R WCI -20
DAUPHIN        CLEAR      1  -6  71 W16       29.80R WCI -18
ISLAND LAKE    LGT SNOW  -4  -9  77 W6        29.55S WCI -16
PILOT MOUND      N/A      7   1  78 W10         N/A  WCI  -8
THE PAS        MOCLDY    -2 -11  65 NW15      29.72R WCI -22
THOMPSON       MOCLDY   -13 -20  70 SW8       29.56F WCI -30
WINNIPEG       PTCLDY     1  -2  85 W9        29.79R WCI -14
LYNN LAKE      FLURRIES -13 -17  84 W8        29.53S WCI -30
CHURCHILL      LGT SNOW -22 -27  76 N18G25    29.53R DRFTSNOWWCI -50
GILLAM         MOCLDY   -15 -22  70 W7        29.51S WCI -31
$$
                ***SASKATCHEWAN***

CITY           SKY/WX    TMP DP  RH WIND       PRES   REMARKS
ESTEVAN        FLURRIES  12   7  79 W10       29.89S WCI  -1
KINDERSLEY     PTCLDY     0  -8  71 W10       29.93F WCI -17
LLOYDMINSTER   PTCLDY     0  -6  78 W16       29.86F WCI -21
PRINCE ALBERT  FLURRIES   3  -2  78 W7        29.85S WCI  -9
REGINA         PTCLDY     3  -2  78 W15G23    29.88R WCI -15
YORKTON        PTCLDY     1  -4  78 NW13      29.82R WCI -16
N. BATTLEFORD  CLOUDY     5  -4  66 W14       29.90S WCI -12
LA RONGE       MOCLDY     1  -4  78 W10       29.74S WCI -14
SASKATOON      MOCLDY    -4  -9  77 W13       29.90S WCI -23
SWIFT CURRENT  CLEAR      0  -6  78 W16       29.89F WCI -21
$$
NOTE: THESE ARE AUTOMATED STATIONS WITH LIMITED QUALITY CONTROL
      "FAIR" INDICATES FEW OR NO CLOUDS BELOW 12,000 FEET WITH NO
      SIGNIFICANT WEATHER AND/OR OBSTRUCTIONS TO VISIBILITY.
      SKY/WX - SKY CONDITION AND SIGNIFICANT WEATHER.
      TMP - AIR TEMPERATURE.    DP   - DEWPOINT TEMPERATURE.
      RH  - RELATIVE HUMIDITY.  PRES - PRESSURE.
      HX  - HEAT INDEX.         WCI  - WIND CHILL INDEX.
$




USA.gov is the U.S. government's official web portal to all federal, state and local government web resources and services.